RH
8 8 8 9 8 8 8 8 7 7 6 6 6 7 8 8 9 9 9 9 9 9 8 9 10 11 12 14 16 17 18 19 20 22 26 31 35 38 41 42 41 43
7 7 6 7 7 7 7 7 7 7 6 6 6 6 6 7 7 8 8 9 9 8 8 8 8 8 9 10 11 13 15 17 18 19 20 22 24 27 31 35 37 38
7 6 6 5 5 5 5 5 5 5 5 5 5 5 5 5 5 6 7 7 8 8 8 8 8 7 7 8 8 9 11 13 15 16 18 19 20 21 23 25 28 31
6 6 5 4 4 4 4 4 4 4 4 4 4 4 4 4 4 4 5 5 6 7 7 7 7 7 7 7 7 8 8 9 10 12 14 16 17 18 19 20 22 24
5 5 4 4 4 4 3 3 4 3 3 3 3 3 3 3 3 3 4 4 4 4 5 6 6 7 7 7 7 7 7 8 8 8 10 12 14 15 17 17 19 20
4 4 4 4 4 4 4 4 3 4 4 4 4 4 4 3 3 3 4 4 4 4 4 4 4 5 5 6 6 7 7 7 8 8 8 8 10 12 13 15 16 17
4 4 4 4 4 4 3 3 3 3 3 3 3 3 3 3 3 4 4 4 4 4 4 4 4 4 4 4 5 5 6 6 7 7 8 8 8 8 9 11 13 14
4 4 4 4 4 4 3 3 3 3 3 3 3 3 3 3 3 3 4 4 4 4 4 4 4 4 4 4 4 4 4 5 5 6 6 7 8 8 8 8 9 11
3 3 3 3 3 4 4 4 4 3 3 3 3 3 3 3 3 3 3 3 3 4 4 4 4 4 4 4 4 4 4 4 4 4 5 5 6 7 7 7 7 8
3 3 3 4 4 4 4 4 4 4 4 4 4 4 3 3 3 3 3 3 3 3 3 3 4 4 4 4 4 4 4 4 4 4 4 5 5 5 6 6 6 7
3 3 3 4 4 4 4 4 4 4 4 5 5 4 4 4 4 4 4 3 4 4 4 4 4 3 4 3 3 3 3 4 4 4 4 4 4 5 5 5 5 6
3 3 3 3 4 4 4 4 4 4 4 4 4 4 4 4 4 4 4 4 4 4 4 4 4 4 4 4 3 3 3 3 3 4 4 4 4 4 4 5 5 5
3 3 3 3 3 3 3 3 3 3 3 3 4 4 4 4 4 4 4 4 4 4 4 4 4 4 4 4 4 4 4 4 4 3 4 4 4 4 4 4 5 5
3 3 3 3 3 3 3 3 3 3 3 3 3 3 3 3 3 3 3 3 3 3 3 3 3 3 4 4 4 4 4 4 4 4 4 4 4 4 4 4 4 4
3 3 3 3 3 3 3 3 3 3 3 3 3 3 3 3 3 3 3 3 3 3 3 3 3 3 3 3 3 4 4 4 4 4 4 4 4 4 4 4 4 4
3 3 3 3 3 3 3 3 3 3 3 3 3 3 3 3 3 3 3 3 3 3 3 3 3 3 3 3 3 3 3 3 4 4 4 4 5 5 5 4 4 4
3 3 3 3 3 3 3 3 3 3 3 3 3 3 3 3 3 3 3 3 3 3 4 3 3 4 3 3 3 3 3 3 3 3 4 4 4 4 5 5 5 4
3 3 3 3 3 3 3 3 3 3 3 3 3 3 3 3 3 3 3 3 3 3 3 3 3 3 3 3 3 3 3 3 3 3 3 3 4 4 4 4 5 5
3 3 3 3 3 3 3 3 3 3 3 3 3 3 3 3 3 3 3 3 3 3 3 3 3 3 3 3 3 3 3 3 3 4 4 3 3 3 4 4 4 4
3 3 3 3 3 3 3 3 3 3 3 3 3 3 3 3 3 3 3 3 3 3 4 3 3 3 3 3 3 3 3 3 4 4 4 4 4 4 3 3 3 3
3 3 3 3 3 3 3 3 3 3 3 3 3 3 3 3 3 3 3 3 3 3 4 4 4 4 3 3 3 3 3 4 4 4 4 4 4 4 3 3 3 3
3 3 3 3 3 3 3 3 3 3 3 3 3 3 3 3 3 3 3 3 3 3 3 3 3 4 4 4 3 3 3 4 4 4 4 4 4 3 3 3 3 3
3 4 3 3 3 3 3 3 3 3 3 3 3 3 3 3 3 3 3 3 3 3 3 3 3 3 4 4 3 3 3 4 4 4 4 4 4 4 3 3 3 3
3 3 3 3 4 4 4 4 3 3 3 3 3 3 3 3 3 3 3 3 3 3 3 3 3 3 3 3 3 4 4 4 4 4 4 4 4 4 4 4 4 4
3 3 3 3 4 4 4 4 4 4 4 4 4 4 4 4 4 4 4 3 3 3 3 3 3 3 3 3 3 4 4 4 4 4 4 4 4 4 4 4 4 4
3 4 4 4 4 4 4 4 4 4 4 4 4 4 4 4 4 4 4 4 4 4 3 3 3 3 3 3 4 4 4 4 4 4 4 4 4 4 4 4 4 4
Wind_Speed
103 103 103 104 105 106 107 108 109 109 110 110 110 111 113 115 117 119 120 121 122 122 122 122 122 123 124 125 127 128 129 130 131 132 133 134 135 135 136 136 136 136
104 103 103 103 103 104 105 105 107 108 109 109 110 110 110 111 113 115 117 119 121 122 122 123 123 123 124 124 126 127 129 130 131 132 133 134 135 136 137 137 138 138
106 105 104 103 103 103 103 104 105 106 107 108 109 109 110 110 110 111 113 115 118 120 121 122 123 123 123 124 124 125 127 129 130 132 133 134 135 135 136 137 138 139
107 106 105 104 103 102 103 103 103 104 105 105 106 107 108 109 109 110 110 112 113 116 118 120 121 122 123 123 123 124 125 126 128 129 131 133 135 135 136 137 137 138
104 104 104 103 102 101 101 101 101 101 102 102 103 104 105 106 107 108 108 109 110 112 114 116 118 120 121 122 122 123 123 124 125 127 128 130 132 134 136 137 137 138
99 99 100 101 100 100 98 98 98 98 99 99 100 101 102 103 104 104 105 106 107 109 110 111 113 115 117 119 120 121 121 122 123 124 126 127 129 131 133 135 137 137
92 92 93 95 97 97 97 96 96 95 96 96 97 97 98 99 99 100 102 103 104 106 107 108 109 111 113 114 116 118 119 120 121 122 123 125 126 128 130 132 134 136
87 87 88 89 91 92 93 93 94 94 94 94 94 94 94 94 95 97 98 100 101 103 104 105 106 107 109 110 112 113 115 117 118 119 121 122 124 125 127 128 129 132
83 83 84 85 87 88 89 90 91 91 92 92 92 91 90 90 91 92 94 96 98 99 101 102 103 104 105 106 108 109 111 113 114 116 117 119 121 123 124 125 125 127
80 80 80 81 83 84 85 86 86 87 88 89 90 90 89 88 88 89 91 93 94 95 97 99 100 101 102 103 104 105 107 108 110 111 113 115 117 119 121 122 123 123
79 78 78 78 79 80 81 82 83 83 84 85 86 87 87 87 87 88 89 89 90 92 94 96 97 99 100 101 101 102 103 104 105 107 108 110 112 115 117 118 119 121
79 77 76 76 76 77 77 78 80 81 81 82 83 84 84 85 85 87 88 88 88 89 90 92 94 96 97 99 99 100 100 101 102 103 104 105 107 109 111 112 115 117
78 76 75 75 75 75 75 76 76 77 78 79 80 81 81 82 83 84 86 87 87 88 89 90 91 92 94 96 97 98 98 98 99 100 101 101 102 104 105 106 108 112
76 76 75 74 74 74 74 74 74 75 75 76 77 78 78 79 80 81 83 84 85 87 88 88 89 90 91 92 93 94 96 96 96 97 97 98 99 100 100 101 103 105
74 74 73 73 73 73 73 72 72 73 73 74 74 75 75 76 77 78 79 81 82 84 85 87 88 89 90 90 90 91 92 93 94 94 94 94 95 96 97 98 99 100
72 72 71 71 71 71 70 71 71 71 71 71 72 72 73 74 74 75 75 77 78 80 82 83 85 87 88 89 88 88 89 90 91 91 91 91 92 93 94 95 96 97
70 70 69 69 69 68 68 68 68 68 69 69 69 70 70 71 72 72 72 73 74 76 78 80 82 84 85 86 87 87 87 87 88 88 88 89 90 90 91 92 93 94
69 68 68 67 67 66 66 66 66 66 66 66 67 67 68 68 69 69 70 70 71 72 74 76 78 80 81 82 84 84 84 84 84 85 86 87 88 89 89 90 90 91
68 67 66 65 65 64 64 64 63 63 63 64 64 64 65 65 65 66 67 67 68 69 71 73 74 76 77 78 80 81 81 81 81 82 84 85 87 87 88 87 88 88
67 66 65 64 63 63 62 61 61 61 61 61 61 62 62 62 62 63 63 64 65 66 68 69 71 72 73 74 75 77 77 77 77 79 81 83 85 86 86 86 86 86
65 64 64 63 62 61 60 60 59 59 59 59 59 59 60 60 60 60 61 61 61 62 64 66 67 68 69 70 71 73 73 73 74 76 79 81 82 83 84 84 84 84
64 63 63 62 61 60 59 58 58 57 57 57 57 57 57 58 58 58 59 59 59 59 61 62 64 64 66 67 68 69 69 69 71 74 76 78 79 80 81 81 81 81
60 60 60 60 59 58 58 57 56 55 55 55 55 55 55 56 56 56 57 57 57 57 58 59 60 61 62 64 65 65 65 66 69 71 72 74 75 75 76 77 78 79
58 58 57 57 56 56 56 55 55 54 54 53 54 54 53 53 54 54 54 55 56 56 56 56 57 57 59 60 60 61 62 64 66 67 68 69 70 71 71 73 75 76
57 57 56 55 54 54 54 53 53 53 52 52 52 52 51 51 52 52 52 53 53 54 54 54 55 55 55 56 56 57 58 60 61 62 64 66 67 68 69 70 72 73
57 56 55 54 53 53 52 51 51 51 50 50 50 50 49 49 49 50 50 51 51 52 52 52 52 52 53 53 53 54 55 55 57 59 61 63 64 65 66 67 68 69
Wind_Direction
283 281 280 278 277 276 275 273 272 271 269 267 265 264 262 262 262 261 261 261 260 259 258 257 255 254 253 252 251 251 251 251 250 250 249 249 249 249 249 249 248 248
286 284 282 280 278 276 275 273 272 271 270 268 267 265 264 262 261 260 260 260 260 260 259 258 257 256 254 253 252 251 251 251 251 250 250 249 249 249 249 249 249 248
287 285 283 281 279 278 276 274 272 271 270 269 268 267 266 264 262 261 260 260 259 259 259 259 258 257 256 255 254 252 251 251 250 250 250 250 250 249 249 249 249 249
286 285 283 282 280 278 277 275 273 272 271 270 269 268 267 266 265 263 262 260 259 259 259 259 259 258 257 256 255 254 253 252 251 250 250 250 250 250 250 249 249 249
285 284 283 282 281 279 277 276 274 273 272 270 269 268 267 267 266 265 264 262 261 260 259 259 258 258 258 257 256 256 255 254 253 252 251 250 250 250 250 250 250 249
284 283 283 282 281 279 278 276 275 273 272 271 270 268 268 267 266 266 265 264 263 261 260 260 259 258 258 258 257 257 256 255 254 253 252 252 251 250 250 250 250 250
283 282 281 280 280 279 278 277 276 274 273 271 270 269 268 268 267 267 266 265 264 262 261 260 259 259 258 258 257 257 256 256 255 254 253 253 252 251 250 250 250 250
284 282 281 279 279 278 278 277 277 276 274 273 272 270 269 269 268 267 266 265 264 263 262 261 260 259 259 258 257 257 256 256 255 254 254 253 253 252 252 251 250 250
285 284 282 281 279 278 277 277 276 276 275 274 273 272 271 269 268 267 266 265 264 264 263 262 261 260 259 259 258 257 257 256 255 254 254 253 253 252 252 252 251 250
287 285 283 281 280 279 278 277 276 275 274 274 274 273 272 270 269 267 265 264 264 264 263 263 262 261 260 259 258 258 257 256 256 255 254 253 253 253 252 252 252 251
288 286 283 281 280 278 277 276 276 275 274 273 272 272 272 271 270 268 267 265 264 263 263 262 262 262 261 260 259 258 258 257 256 256 255 254 253 253 253 252 252 252
290 288 285 283 281 279 278 276 275 275 274 273 272 271 270 270 269 268 268 267 265 264 263 262 261 261 261 261 260 260 259 258 257 256 256 255 254 253 253 252 252 252
291 289 287 285 283 281 279 278 276 275 274 273 272 271 270 269 268 267 267 267 266 265 264 263 262 261 260 260 260 260 260 259 258 257 257 256 255 255 254 253 252 252
292 290 289 287 285 283 281 280 278 276 275 274 272 271 270 269 268 267 266 266 266 266 265 264 263 262 261 260 260 260 259 259 259 258 257 256 256 256 255 254 253 252
292 290 289 288 286 285 283 282 280 278 277 276 274 273 272 270 269 267 266 266 265 265 265 265 264 264 263 262 261 260 260 259 259 258 258 257 256 256 256 255 254 253
292 291 290 288 287 286 284 283 281 280 278 277 276 274 273 272 270 269 267 266 265 264 264 264 264 264 264 263 262 262 261 260 260 259 259 258 257 256 256 255 254 253
294 293 291 290 288 287 286 284 283 281 280 278 277 276 274 273 272 270 269 267 266 265 264 263 262 262 262 263 263 262 262 261 260 260 260 259 258 256 255 255 254 254
296 294 293 291 290 288 287 285 284 283 281 280 278 277 275 274 273 272 270 269 267 266 264 263 262 262 262 262 262 262 262 261 261 261 260 259 259 257 256 255 254 254
298 296 294 293 292 290 288 287 286 284 283 281 280 278 277 276 274 273 272 270 269 267 265 264 263 262 262 261 261 261 261 261 261 261 260 260 259 258 257 256 255 253
299 298 296 295 293 292 290 289 288 286 285 283 282 280 279 277 275 274 272 271 269 268 267 266 264 263 262 262 261 261 260 260 260 260 259 259 259 258 258 257 256 254
300 299 298 296 295 294 293 291 289 288 286 285 284 282 280 279 277 275 273 271 270 268 267 266 265 264 263 262 261 260 260 259 258 258 257 257 257 258 257 257 257 256
302 300 299 298 297 296 294 293 291 290 288 287 285 283 282 280 279 277 275 273 271 269 267 266 265 264 264 263 262 261 260 259 258 257 256 256 256 257 257 258 257 257
302 301 300 299 298 297 296 294 293 292 290 288 287 285 284 282 280 279 277 276 273 271 269 267 266 265 263 262 262 261 260 259 258 258 257 257 257 257 257 258 258 257
303 302 301 300 299 298 297 296 294 293 291 290 288 286 285 284 282 281 279 278 276 274 272 270 268 266 265 264 263 262 260 259 259 259 259 258 258 258 257 257 257 257
306 304 303 302 301 299 298 297 295 294 292 291 289 288 286 285 283 282 281 279 277 276 274 273 271 269 268 267 265 263 260 259 259 258 258 258 257 256 256 255 255 255
308 306 305 304 302 300 299 297 296 295 293 292 290 289 287 286 284 283 281 280 279 277 276 274 273 271 269 268 266 264 262 260 258 257 256 256 256 256 255 255 255 255